This is the latest recevied weather packets stored in our database for station/object KC8UZG. If no packets are shown the sender has not sent any weather packets the latest 10 day(s).
| Time | Temp. | Humidity | Pressure | Rain* | Wind** | Luminosity | Snow |
|---|---|---|---|---|---|---|---|
| 1778004920 | 18.33° C | 84% | 1008 hPa | 0 mm | - | 76 W/m² | - |
| 1778004327 | 18.33° C | 84% | 1008 hPa | 0 mm | - | 57 W/m² | - |
| 1778003732 | 18.33° C | 83% | 1008 hPa | 0 mm | - | 82 W/m² | - |
| 1778003138 | 18.33° C | 83% | - | 0 mm | - | 98 W/m² | - |
| 1778002517 | 17.78° C | 83% | - | 0 mm | - | 60 W/m² | - |
| 1778001923 | 18.33° C | 81% | - | 0 mm | - | 48 W/m² | - |
| 1778001329 | 18.89° C | 80% | 1008 hPa | 0 mm | - | 58 W/m² | - |
| 1778000735 | 18.89° C | 80% | 1008.2 hPa | 0 mm | - | 116 W/m² | - |
| 1778000141 | 18.89° C | 81% | 1008 hPa | 0 mm | - | 92 W/m² | - |
| 1777999520 | 18.89° C | 81% | 1008.2 hPa | 0 mm | - | 76 W/m² | - |
| 1777998927 | 18.89° C | 81% | 1008.3 hPa | 0 mm | - | 88 W/m² | - |
| 1777998332 | 18.89° C | 81% | 1008.3 hPa | 0 mm | - | 78 W/m² | - |
| 1777997738 | 19.44° C | 81% | 1008.3 hPa | 0 mm | - | 110 W/m² | - |
| 1777997117 | 19.44° C | 81% | 1008.2 hPa | 0 mm | - | 190 W/m² | - |
| 1777996523 | 18.89° C | 82% | 1008.3 hPa | 0 mm | - | 172 W/m² | - |
| 1777995929 | 18.89° C | 81% | 1008 hPa | 0 mm | - | 170 W/m² | - |
| 1777995335 | 19.44° C | 80% | 1008 hPa | 0 mm | - | 173 W/m² | - |
| 1777994741 | 19.44° C | 79% | 1008 hPa | 0 mm | - | 180 W/m² | - |
| 1777994120 | 19.44° C | 79% | 1008 hPa | 0 mm | - | 178 W/m² | - |
| 1777993526 | 19.44° C | 79% | 1007.8 hPa | 0 mm | - | 230 W/m² | - |
| 1777992932 | 18.89° C | 81% | 1008 hPa | 0 mm | - | 247 W/m² | - |
| 1777992338 | 17.78° C | 84% | 1008 hPa | 0 mm | - | 272 W/m² | - |
| 1777991717 | 17.22° C | 89% | 1007.8 hPa | 0 mm | - | 140 W/m² | - |
| 1777991123 | 16.11° C | 96% | 1007.7 hPa | 0 mm | - | 148 W/m² | - |
| 1777990529 | 15° C | 99% | 1007.6 hPa | 0 mm | - | 101 W/m² | - |
* Rain latest hour (hover to see other rain measurements)
** Current wind speed in m/s (hover to see current wind gust speed)